Location: Belkonak
(36.3044°N, 29.7911°E)
Time: 01:56:08
(UTC+00:00)

Daily predictions for brighter satellites

Satellite Brightness Start Highest point End
(mag) Time Altitude Azimuth Time Altitude Azimuth Time Altitude Azimuth
CZ-3 Stage 3 4.0 01:27:11 66° SSE 01:27:11 66° SSE 01:52:43 10° E
CZ-3 R/B 3.8 01:45:41 52° WSW 01:49:57 60° SSW 01:59:38 10° ESE
Cosmos 2082 Rocket 3.3 02:07:34 39° ENE 02:07:34 39° ENE 02:11:22 10° NNE
Cosmos 2279 Rocket 3.9 02:29:48 54° N 02:31:23 84° E 02:37:38 10° S
Cosmos 1980 Rocket 2.4 02:32:25 55° NNE 02:33:18 64° ENE 02:38:49 10° SSE
Cosmos 2098 Rocket 3.7 02:38:52 44° N 02:40:48 83° E 02:46:33 10° S
Cosmos 220 Rocket 4.1 02:51:54 64° ESE 02:52:03 65° ESE 02:56:06 10° NNE
Tiangong 0.0 02:55:00 25° ENE 02:55:00 25° ENE 02:56:44 10° E
SJ-11-01 4.1 02:50:31 10° N 02:55:13 82° WNW 02:59:53 10° SSW
Cosmos 372 Rocket 4.4 02:53:44 25° N 02:56:32 57° ENE 03:01:30 10° SSE
Cosmos 990 Rocket 4.4 03:05:11 43° WSW 03:05:11 43° WSW 03:09:31 10° S
Cosmos 2142 Rocket 4.4 03:02:16 15° NNW 03:07:31 66° W 03:13:36 10° S
Cosmos 1606 Rocket 3.9 03:06:09 15° N 03:09:42 66° E 03:14:03 10° SSE
SL-8 R/B 3.6 03:12:41 53° W 03:13:38 68° SW 03:18:21 10° SE
Cosmos 1697 Rocket 4.3 03:17:16 18° SW 03:17:16 18° SW 03:19:18 10° SSW
Helios 1A Rocket 3.8 03:16:08 10° SE 03:19:15 38° ENE 03:22:13 11° N
Cosmos 1092 Rocket 4.4 03:16:36 10° S 03:22:48 64° E 03:28:59 10° NNE
Meteor 2-3 Rocket 3.7 03:19:26 10° S 03:25:12 86° W 03:30:56 10° N
Cosmos 489 Rocket 4.5 03:20:58 10° SSW 03:27:08 56° WNW 03:33:18 10° N
Cosmos 2322 Rocket 4.4 03:23:02 10° N 03:27:20 21° ENE 03:31:35 10° ESE
Nadezhda 4 Rocket 4.1 03:21:41 10° SSW 03:27:50 54° W 03:33:59 10° N
Cosmos 1428 Rocket 4.4 03:22:53 10° SSW 03:29:00 65° W 03:35:14 10° N
NOSS 2-1 (D) 3.9 03:32:00 21° NNW 03:34:37 66° ENE 03:39:54 10° SE
Cosmos 1726 Rocket 3.4 03:31:49 10° N 03:36:10 84° W 03:40:20 10° S
USA 59 Rocket 0.2 03:34:44 22° NNW 03:37:22 78° ENE 03:42:50 10° SE
COSMOS 2406 3.4 03:32:55 10° SW 03:38:22 47° WNW 03:43:50 10° N
CZ-4 R/B 4.0 03:35:01 10° N 03:39:25 44° WNW 03:43:47 10° SW
Cosmos 2237 4.2 03:33:41 10° NNW 03:39:25 87° ENE 03:45:06 10° SSE
SL-24 R/B - RUBIN 2 4.2 03:38:33 29° WNW 03:39:52 36° WSW 03:43:55 10° S
Cosmos 841 Rocket 4.0 03:35:07 10° SW 03:39:53 36° WNW 03:44:42 10° N
NOSS 3-1 (C) 4.4 03:34:06 10° NNW 03:41:40 73° ENE 03:50:53 10° SE
Cosmos 2195 Rocket 4.5 03:36:06 10° SSW 03:42:15 64° W 03:48:31 10° N
NOSS 2-1 (E) 4.0 03:39:18 16° NNW 03:42:21 61° ENE 03:47:34 10° SE
BREEZE-M DEB (TANK) 3.2 03:44:06 19° WNW 03:48:35 79° SW 03:51:47 10° SE
Cosmos 1892 Rocket 3.7 03:45:27 10° SSW 03:49:38 48° W 03:53:53 10° N
Cosmos 2082 Rocket 3.3 03:49:32 20° WNW 03:50:17 20° NW 03:54:21 10° N
Cosmos 1933 4.1 03:52:07 21° NW 03:53:29 27° W 03:56:42 10° SSW
SL-16 R/B 2.7 03:48:33 10° NNW 03:54:11 63° ENE 03:59:46 10° SSE
NOSS 2-1 (C) 3.6 03:58:58 14° NW 04:02:23 71° WSW 04:07:50 10° SSE
COSMOS 2455 3.1 03:58:09 11° NW 04:03:46 48° WSW 04:09:29 10° S
Meteor 2-20 4.4 03:58:58 10° NNW 04:05:01 67° W 04:11:00 10° S
IRS-1D 4.5 04:01:10 10° NNW 04:05:06 24° WNW 04:09:05 10° WSW
Cosmos 1898 Rocket 4.1 04:02:36 10° NW 04:07:21 36° W 04:12:06 10° SSW
Cosmos 405 Rocket 2.3 04:09:31 10° S 04:12:44 81° E 04:16:00 10° N
USA 267 4.3 04:09:08 10° NE 04:15:27 50° SE 04:21:43 10° SSW
Cosmos 1980 Rocket 3.8 04:14:14 11° WNW 04:16:37 14° W 04:19:30 10° SW
Cosmos 2278 3.8 04:11:35 10° NNW 04:17:16 85° ENE 04:22:53 10° SSE
COSMO-SKYMED 1 3.3 04:13:48 10° SSW 04:17:24 29° W 04:21:02 10° NW
Cosmos-2242 3.0 04:16:59 10° NNW 04:21:08 59° W 04:25:13 10° S
ATLAS 2AS CENTAUR R/B 3.3 04:17:13 10° SSW 04:24:15 66° ESE 04:31:07 10° NE
Cosmos 1602 Rocket 4.3 04:20:11 10° S 04:24:30 59° E 04:28:53 10° NNE
Delta 2 Rocket 3.8 04:21:50 10° W 04:24:34 30° SSW 04:27:14 10° SE
Meteor 2-2 Rocket 4.3 04:19:34 10° NNW 04:25:12 63° W 04:30:55 10° S
Meteor 2-20 Rocket 4.3 04:21:30 10° NNW 04:27:09 62° W 04:32:45 10° S
Cosmos 2058 Rocket 3.4 04:23:14 10° NNW 04:27:28 45° W 04:31:38 10° SSW
SL-08 ROCKET BODY 4.3 04:23:21 10° S 04:29:12 76° W 04:35:03 10° N
Cosmos 1484 Rocket 3.7 04:27:32 10° NNW 04:30:12 21° WNW 04:32:50 10° WSW
Tiangong -1.8 04:27:36 10° WNW 04:30:47 59° SSW 04:33:57 10° SE
BREEZE-M DEB (TANK) 2.7 04:28:17 10° WSW 04:30:49 44° NW 04:33:16 10° NE
Cosmos 1937 Rocket 4.4 04:27:38 10° NW 04:31:58 28° W 04:36:17 10° SSW
Cosmos 2285 Rocket 4.5 04:26:03 10° NNW 04:32:24 67° ENE 04:38:46 10° SSE
CORIOLIS 4.1 04:28:24 10° N 04:33:46 76° WNW 04:39:09 10° SSW
IRIDIUM 104 4.4 04:29:11 10° SSW 04:34:18 59° W 04:39:28 10° N
ARIANE 5 R/B 2.8 04:31:05 10° NNE 04:36:19 81° ESE 04:41:32 10° S
